Location: Hilton Head Island
(32.2163°N, 80.7526°W)
Time: 21:13:38
(UTC-04:00)

Vanguard 1 - Pass Details

Date: 21 February 2026
Orbit: 653 x 3818 km, 34.2° (Epoch: 9 March)

Event Time Altitude Azimuth Distance (km) Brightness Sun altitude
Rises 17:55:35 0° 280° (W) 5,142 15.2 3.0°
Reaches altitude 10° 17:58:19 10° 281° (W) 4,467 14.8 2.5°
Maximum altitude 18:12:03 88° 12° (NNE) 2,989 12.6 -0.4°
Drops below altitude 10° 18:34:56 10° 104° (ESE) 6,901 13.8 -5.1°
Enters shadow 18:40:24 - 105° (ESE) 7,937 14.1 -6.3°
Sets 18:40:27 0° 105° (ESE) 7,945 - -6.3°
